Regional Weather Roundup
Issued by NWS

Home | Current Version | Previous Version | Graphics & Text | Print | Product List | Glossary On
Versions: 1 2 3 4 5 6 7 8 9 10 11 12 13 14 15 16 17 18 19 20 21 22 23 24 25 26 27 28 29 30 31 32 33 34 35 36 37 38 39 40 41 42 43 44 45 46 47 48 49 50
000
ASUS43 KLSX 120257
RWRMO

WEATHER SUMMARY FOR MISSOURI
NATIONAL WEATHER SERVICE SPRINGFIELD MO
900 PM CST THU FEB 11 2016

NOTE: "FAIR" INDICATES FEW OR NO CLOUDS BELOW 12,000 FEET WITH NO
       SIGNIFICANT WEATHER AND/OR OBSTRUCTIONS TO VISIBILITY.
       CURRENT SKY AND/OR WEATHER CONDITIONS ARE NOT AVAILABLE FOR
       CHILLICOTHE AND FARMINGTON.

MOZ001>031-035>038-043-044-053-054-120400-
...NORTHERN AND WESTERN MISSOURI...

CITY           SKY/WX    TMP DP  RH WIND       PRES   REMARKS
KANSAS CTY INT MOCLDY    32  21  64 SE5       30.18F WCI  27
LEE`S SUMMIT   CLOUDY    33  20  58 VRB3      30.19F
ST JOSEPH      MOCLDY    30  20  66 SE5       30.20S WCI  25
CHILLICOTHE      N/A     28  15  58 E5        30.23F WCI  23

$$
MOZ066>068-077>081-088>096-101>105-120400-
...SOUTHWEST MISSOURI...

CITY           SKY/WX    TMP DP  RH WIND       PRES   REMARKS
SPRINGFIELD    CLOUDY    40  20  44 E3        30.15F
JOPLIN         CLOUDY    40  23  50 N5        30.17F

$$
MOZ032>034-039>042-045>050-055>058-069>072-120400-
...CENTRAL MISSOURI...

CITY           SKY/WX    TMP DP  RH WIND       PRES   REMARKS
COLUMBIA       NOT AVBL
JEFFERSON CITY CLOUDY    31  19  61 E8        30.21F WCI  23
ROLLA          CLOUDY    30  20  66 E8        30.18F WCI  22
SEDALIA        CLOUDY    33  20  58 NE7       30.23R WCI  27

$$
MOZ051-052-059>065-120400-
...EAST CENTRAL MISSOURI...

CITY           SKY/WX    TMP DP  RH WIND       PRES   REMARKS
ST LOUIS INTL  CLOUDY    28  10  46 E10       30.27F WCI  19

$$
MOZ072>076-082>087-097>100-106>115-120400-
...SOUTH CENTRAL AND SOUTHEAST MISSOURI...

CITY           SKY/WX    TMP DP  RH WIND       PRES   REMARKS
CAPE GIRARDEAU CLOUDY    32  20  61 NE8       30.29R WCI  25
POPLAR BLUFF   CLOUDY    34  23  64 NE6       30.26R WCI  29
WEST PLAINS    MOCLDY    37  19  48 SE9       30.19S

$$


USA.gov is the U.S. government's official web portal to all federal, state and local government web resources and services.